Regional Weather Roundup
Issued by NWS Northern Indiana

Home | Current Version | Previous Version | Graphics & Text | Print | Product List | Glossary On
Versions: 1 2 3 4 5 6 7 8 9 10 11 12 13 14 15 16 17 18 19 20 21 22 23 24 25 26 27 28 29 30 31 32 33 34 35 36 37 38 39 40 41 42 43 44 45 46 47 48 49 50
000
ASUS43 KIWX 211810
RWRIWX

KIWX WEATHER ROUNDUP
NATIONAL WEATHER SERVICE NORTHERN INDIANA
200 PM EDT SAT OCT 21 2017

NOTE: "FAIR" INDICATES FEW OR NO CLOUDS BELOW 12,000 FEET WITH NO
SIGNIFICANT WEATHER AND/OR OBSTRUCTIONS TO VISIBILITY.

* THESE STATIONS ARE NOT UNDER NWS QUALITY CONTROL. THEY ALSO MAY NOT
  REPORT WEATHER SUCH AS PRECIPITATION OR FOG.

INZ001>027-211900-
NORTHERN INDIANA

CITY           SKY/WX    TMP DP  RH WIND       PRES   REMARKS
GARY*          MOSUNNY   75  52  43 S14       30.07F
VALPARAISO     CLOUDY    74  55  51 S18G25    30.10F
6HR MIN TEMP:  55; 6HR MAX TEMP:  77;

MICHIGAN CITY* CLOUDY    72  54  53 S8G16     30.10F
LAPORTE*       CLOUDY    73  54  51 S15G25    30.12F
6HR MIN TEMP:  55; 6HR MAX TEMP:  73; 6HR PCP:  0.01;

KNOX*          PTSUNNY   73  52  46 SW14G21   30.12F
SOUTH BEND     PTSUNNY   71  52  50 SW14      30.13S
6HR MIN TEMP:  57; 6HR MAX TEMP:  72; 6HR PCP: TRACE;

ELKHART*       SUNNY     73  46  38 S10       30.13F
GOSHEN         PTSUNNY   71  45  39 S14       30.14F
6HR MIN TEMP:  54; 6HR MAX TEMP:  72;

MONTICELLO*    MOSUNNY   73  52  46 S13G20    30.13F
6HR MIN TEMP:  54; 6HR MAX TEMP:  73;

LOGANSPORT*    MOSUNNY   72  52  49 S12G17    30.16F
WARSAW*        MOSUNNY   72  46  40 SW6       30.15F
AUBURN*        PTSUNNY   72  46  40 S6        30.17F
FORT WAYNE     PTSUNNY   73  46  38 S15       30.18F
6HR MIN TEMP:  48; 6HR MAX TEMP:  73;

HUNTINGTON*    CLOUDY    73  42  32 SW12G17   30.17F
6HR MIN TEMP:  50; 6HR MAX TEMP:  73;

PERU/GRISSOM   PTSUNNY   71  52  50 S14       30.16F
6HR MIN TEMP:  52; 6HR MAX TEMP:  73;


$$
INZ028>050-211900-
CENTRAL INDIANA

CITY           SKY/WX    TMP DP  RH WIND       PRES   REMARKS
LAFAYETTE      MOSUNNY   73  54  51 S12G17    30.13F
6HR MIN TEMP:  50; 6HR MAX TEMP:  73;

KOKOMO*        MOSUNNY   70  52  52 S10       30.17F
6HR MIN TEMP:  53; 6HR MAX TEMP:  70;

MUNCIE*        CLOUDY    72  45  37 SW12      30.19F
6HR MIN TEMP:  57; 6HR MAX TEMP:  74;

INDIANAPOLIS   PTSUNNY   72  49  44 S13       30.17F
6HR MIN TEMP:  53; 6HR MAX TEMP:  73;


$$
MIZ043>046-050>051-056>058-064>065-071>073-077>080-211900-
SOUTHWEST LOWER MICHIGAN

CITY           SKY/WX    TMP DP  RH WIND       PRES   REMARKS
BATTLE CREEK   PTSUNNY   73  44  35 S16G24    30.13F
6HR MIN TEMP:  54; 6HR MAX TEMP:  73;

BENTON HARBOR  MOSUNNY   72  49  44 S13G22    30.10F
6HR MIN TEMP:  56; 6HR MAX TEMP:  73;

COLDWATER*     MOSUNNY   70  47  44 S5        30.16F
6HR MIN TEMP:  56; 6HR MAX TEMP:  71;

HILLSDALE*     PTSUNNY   70  48  46 S8        30.18F
HOLLAND        CLOUDY    70  49  47 S13       30.10F
6HR MIN TEMP:  55; 6HR MAX TEMP:  71;

GRAND RAPIDS   CLOUDY    73  46  38 S14       30.11F
6HR MIN TEMP:  53; 6HR MAX TEMP:  73;

KALAMAZOO      MOSUNNY   71  46  40 S13       30.13F
6HR MIN TEMP:  54; 6HR MAX TEMP:  71;

STURGIS*       MOSUNNY   72  47  41 SW14G24   30.14F
6HR MIN TEMP:  54; 6HR MAX TEMP:  72;

THREE RIVERS*  FAIR      73  47  40 S13G18    30.14S
6HR MIN TEMP:  52; 6HR MAX TEMP:  73;


$$
OHZ001>008-015>018-024>025-211900-
NORTHWEST OHIO

CITY           SKY/WX    TMP DP  RH WIND       PRES   REMARKS
WAUSEON*       FAIR      73  52  46 SW9       30.18F
DEFIANCE       MOSUNNY   73  50  44 S8        30.18F
6HR MIN TEMP:  52; 6HR MAX TEMP:  73;

FINDLAY        PTSUNNY   75  53  46 S6        30.19F
6HR MIN TEMP:  51; 6HR MAX TEMP:  76;

TOLEDO EXPRESS MOSUNNY   73  56  54 S9        30.19F
6HR MIN TEMP:  49; 6HR MAX TEMP:  74;

TOLEDO METCALF PTSUNNY   74  54  49 S9        30.20F
6HR MIN TEMP:  50; 6HR MAX TEMP:  74;

LIMA           MOSUNNY   77  52  41 S12       30.19F
6HR MIN TEMP:  53; 6HR MAX TEMP:  77;


$$
AND FOR LAKE MICHIGAN COASTAL AND OPEN LAKE BUOY OBSERVATIONS

STATION/POSITION TEMP    WIND        PRES    VSBY  WAVE
                 AIR SEA DIR/SP/G                  HT/PER
                 (F)     (DEG/KT/KT) (MB)    (MI)  (FT/S)
CALUMET HARBOR    72     190/ 13/ 19 1017.0F
MICHIGAN CITY     70     170/ 12/ 18   N/A
BURNS HARBOR      71     190/ 13/ 24 1019.0F
SAINT JOSEPH      71     200/  8/ 16 1019.3
SOUTH LAKE BUOY   62 60  160/ 19/ 23 1017.9          4/ 6
4 MI NW BRIDGMAN  65 59  190/ 10/ 14 1019.2          1/ 4
MICHIGAN CITY     66 58  190/ 10/ 14   N/A           1/ 2

$$
&&




USA.gov is the U.S. government's official web portal to all federal, state and local government web resources and services.